Regional Weather Roundup
Issued by NWS

Home | Current Version | Previous Version | Text Only | Print | Product List | Glossary Off
Versions: 1 2 3 4 5 6 7 8 9 10 11 12 13 14 15 16 17 18 19 20 21 22 23 24 25 26 27 28 29 30 31 32 33 34 35 36 37 38 39 40 41 42 43 44 45 46 47 48 49 50

353
ASUS45 KSLC 050110
RWRUT

UTAH REGIONAL WEATHER ROUNDUP
NATIONAL WEATHER SERVICE SALT LAKE CITY UT
600 PM MST THU FEB 04 2016

UTZ001>011-023>025-050200-

NORTHERN UTAH

CITY           SKY/WX    TMP DP  RH WIND       PRES   REMARKS
BRIGHAM CITY   CLOUDY    27  21  77 CALM      30.43F
HILL AFB       MOCLDY    25  17  72 S7        30.40S WCI  18
LOGAN          LGT SNOW  23  21  92 W5        30.40S FOG     WCI  17
OGDEN          CLOUDY    27  21  78 S7        30.41S WCI  19
PROVO AIRPORT  CLOUDY    21  18  86 CALM      30.44S
SALT LAKE CITY MOCLDY    29  21  72 SE8       30.43S WCI  21
VERNAL         CLOUDY    17  10  74 N3        30.37R
WENDOVER       MOCLDY    27  19  74 S5        30.43S WCI  21
HEBER CITY     CLOUDY    21  16  79 E3        30.36R
WEST JORDAN    CLOUDY    27  21  80 S6        30.43S WCI  20

$$

UTZ012>022-026-027-050200-

SOUTHERN/CENTRAL UTAH

CITY           SKY/WX    TMP DP  RH WIND       PRES   REMARKS
BLANDING       MOCLDY    20  16  84 CALM      30.41S
BRYCE CANYON   PTCLDY    23  18  81 NW17      30.31R WCI   9
CEDAR CITY     PTCLDY    24  16  71 CALM      30.36S
DELTA          MOCLDY    16  15  94 SW6       30.44S WCI   7
HANKSVILLE     PTCLDY    16  12  86 N6        30.47R WCI   7
MILFORD        MOCLDY    18  15  88 N8        30.41F WCI   8
MOAB/CYNLANDS  PTCLDY    17  14  88 CALM      30.43R
PRICE          CLOUDY    18  10  71 CALM      30.34S
ST GEORGE      PTCLDY    46  21  36 SW5       30.39R
KANAB          PTCLDY    36  21  55 CALM      30.37S

$$

REGIONAL REPORTS     COLORADO/ARIZONA

CITY           SKY/WX    TMP DP  RH WIND       PRES   REMARKS
CRAIG, CO      LGT SNOW  16  11  80 NE5       30.31S WCI   9
GRAND JUNCTION FLURRIES  16  14  92 CALM      30.42S
RIFLE          LGT SNOW  17  11  77 CALM      30.38S
MONTROSE       CLOUDY    17   5  59 CALM      30.38S
CORTEZ         CLOUDY    21  15  78 E6        30.33F WCI  13
PAGE, AZ       PTCLDY    34  19  54 NE5       30.36S WCI  30
GRAND CANYON   CLEAR     31  11  43 N3        30.31R
KINGMAN        PTCLDY    45  15  30 NE13      30.32S
FLAGSTAFF      PTCLDY    29  12  49 E8        30.28R WCI  21

$$

REGIONAL REPORTS    NEVADA/IDAHO/WYOMING

CITY           SKY/WX    TMP DP  RH WIND       PRES   REMARKS
LAS VEGAS, NV  MOCLDY    52  16  24 SE3       30.33S
ELY            MOCLDY    28  19  69 N3        30.38S
ELKO           MOCLDY    25  18  74 W5        30.43S WCI  19
POCATELLO, ID  CLOUDY    28  25  88 SW13      30.36S WCI  17
BURLEY         CLOUDY    34  28  79 W8        30.36R WCI  27
EVANSTON, WY   CLOUDY    19  15  84 SW12      30.29R WCI   7
ROCK SPRINGS   CLOUDY    20  14  77 W20       30.23S WCI   4

$$




USA.gov is the U.S. government's official web portal to all federal, state and local government web resources and services.